Weather History for Rockingham, NC

Change the Weather History Date:

Friday, March 8, 2013

  Actual Average (KHFF) Record (KHFF)
Temperature  
Mean Temperature 44 °F -  
Max Temperature 56 °F 57 °F 79 °F (2009)
Min Temperature 31 °F 37 °F 26 °F (1999)
Degree Days  
Heating Degree Days 22    
Moisture  
Dew Point 25 °F    
Average Humidity 50    
Maximum Humidity 79    
Minimum Humidity 29    
Precipitation  
Precipitation 0.00 in - - ()
Sea Level Pressure  
Sea Level Pressure 30.24 in    
Wind  
Wind Speed 6 mph (NW)    
Max Wind Speed 16 mph    
Max Gust Speed 23 mph    
Visibility 10 miles    
Events      
Averages and records for this station are not official NWS values.
T = Trace of Precipitation, MM = Missing Value Source: NWS Daily Summary

Daily Weather History Graph

Daily Weather History Graph

Search for Another Location

Airport:

Trip Planner

Search our weather history database for the weather conditions in past years. The results will help you decide how hot, cold, wet, or windy it might be!

Date:

Astronomy

Mar. 08, 2013 Rise Set
Actual Time 6:38 AM EST 6:21 PM EST
Civil Twilight 6:13 AM EST 6:46 PM EST
Nautical Twilight 5:44 AM EST 7:15 PM EST
Astronomical Twilight 5:15 AM EST 7:44 PM EST
Moon 4:15 AM EST (3/8) 3:20 PM EST (3/8)
Length of Visible Light 12h 32m
Length of Day
11h 42m
Waning Crescent, 12% of the Moon is Illuminated
Mar 8
Waning Crescent
Mar 11
New
Mar 19
First Quarter
Mar 27
Full
Apr 3
Last Quarter

Hourly Weather History & Observations

Time (EST) Temp. Windchill Dew Point Humidity Pressure Visibility Wind Dir Wind Speed Gust Speed Precip Events Conditions
12:15 AM 38.3 °F 34.8 °F 26.1 °F 61% 30.24 in 10.0 mi NNW 4.6 mph - N/A   Clear
12:35 AM 37.4 °F 32.8 °F 26.4 °F 65% 30.24 in 10.0 mi NW 5.8 mph - N/A   Clear
12:55 AM 36.7 °F 32.9 °F 26.6 °F 67% 30.25 in 10.0 mi NNW 4.6 mph - N/A   Clear
1:15 AM 36.1 °F 33.5 °F 26.6 °F 68% 30.25 in 10.0 mi NW 3.5 mph - N/A   Clear
1:35 AM 35.6 °F 31.7 °F 26.4 °F 69% 30.24 in 10.0 mi NNW 4.6 mph - N/A   Clear
1:55 AM 35.6 °F 30.7 °F 26.2 °F 69% 30.24 in 10.0 mi NNW 5.8 mph - N/A   Clear
2:15 AM 35.1 °F 31.0 °F 25.7 °F 69% 30.23 in 10.0 mi NNW 4.6 mph - N/A   Clear
2:35 AM 34.7 °F 30.6 °F 25.9 °F 70% 30.23 in 10.0 mi NNW 4.6 mph - N/A   Clear
2:55 AM 34.0 °F 29.8 °F 25.7 °F 72% 30.22 in 10.0 mi NW 4.6 mph - N/A   Clear
3:15 AM 34.0 °F 29.8 °F 25.7 °F 72% 30.22 in 10.0 mi NW 4.6 mph - N/A   Clear
3:35 AM 33.6 °F 30.6 °F 25.7 °F 73% 30.23 in 10.0 mi NNW 3.5 mph - N/A   Clear
3:55 AM 33.1 °F - 25.5 °F 74% 30.23 in 10.0 mi Calm Calm - N/A   Clear
4:15 AM 32.9 °F 28.5 °F 25.5 °F 74% 30.23 in 10.0 mi NW 4.6 mph - N/A   Clear
4:35 AM 32.9 °F 29.8 °F 25.5 °F 74% 30.23 in 10.0 mi NW 3.5 mph - N/A   Clear
4:55 AM 32.5 °F 29.3 °F 25.3 °F 75% 30.24 in 10.0 mi NW 3.5 mph - N/A   Clear
5:15 AM 32.4 °F 29.1 °F 25.7 °F 76% 30.24 in 10.0 mi NW 3.5 mph - N/A   Clear
5:35 AM 32.2 °F 28.9 °F 25.5 °F 76% 30.25 in 10.0 mi NW 3.5 mph - N/A   Clear
5:55 AM 32.0 °F 28.7 °F 25.5 °F 77% 30.26 in 10.0 mi NW 3.5 mph - N/A   Clear
6:15 AM 32.0 °F - 25.5 °F 77% 30.25 in 10.0 mi Calm Calm - N/A   Clear
6:35 AM 31.6 °F 28.3 °F 25.5 °F 78% 30.26 in 10.0 mi NW 3.5 mph - N/A   Clear
6:55 AM 31.6 °F 27.0 °F 25.7 °F 79% 30.26 in 10.0 mi NW 4.6 mph - N/A   Clear
7:35 AM 33.1 °F 28.7 °F 26.4 °F 77% 30.27 in 10.0 mi NNW 4.6 mph - N/A   Clear
7:55 AM 35.2 °F 31.2 °F 26.8 °F 71% 30.28 in 10.0 mi NNW 4.6 mph - N/A   Clear
8:15 AM 37.8 °F 31.8 °F 26.6 °F 64% 30.28 in 10.0 mi NNW 8.1 mph - N/A   Clear
8:35 AM 38.8 °F 32.1 °F 26.2 °F 61% 30.29 in 10.0 mi NNW 10.4 mph - N/A   Clear
8:55 AM 40.3 °F 34.4 °F 26.6 °F 58% 30.30 in 10.0 mi NW 9.2 mph - N/A   Clear
9:15 AM 42.3 °F 36.8 °F 26.8 °F 54% 30.30 in 10.0 mi NW 9.2 mph 17.3 mph N/A   Clear
9:35 AM 43.7 °F 38.1 °F 26.4 °F 51% 30.30 in 10.0 mi NNW 10.4 mph - N/A   Clear
9:55 AM 44.8 °F 37.7 °F 24.8 °F 46% 30.30 in 10.0 mi NNW 16.1 mph - N/A   Clear
10:15 AM 46.2 °F 41.7 °F 25.7 °F 45% 30.29 in 10.0 mi NW 9.2 mph - N/A   Clear
10:35 AM 46.8 °F - 24.8 °F 42% 30.28 in 10.0 mi North 10.4 mph 20.7 mph N/A   Clear
10:55 AM 48.7 °F - 24.6 °F 39% 30.27 in 10.0 mi North 11.5 mph 18.4 mph N/A   Clear
11:15 AM 48.7 °F - 23.9 °F 38% 30.26 in 10.0 mi NW 10.4 mph 20.7 mph N/A   Clear
11:35 AM 49.6 °F - 23.2 °F 35% 30.26 in 10.0 mi North 9.2 mph 13.8 mph N/A   Clear
11:55 AM 50.7 °F - 24.4 °F 36% 30.25 in 10.0 mi NW 9.2 mph 17.3 mph N/A   Clear
12:15 PM 50.7 °F - 23.2 °F 34% 30.24 in 10.0 mi North 12.7 mph 23.0 mph N/A   Clear
12:35 PM 52.0 °F - 23.9 °F 34% 30.24 in 10.0 mi WNW 16.1 mph 20.7 mph N/A   Clear
12:55 PM 53.2 °F - 24.1 °F 32% 30.23 in 10.0 mi North 12.7 mph 20.7 mph N/A   Clear
1:15 PM 53.1 °F - 23.5 °F 32% 30.21 in 10.0 mi NNW 8.1 mph 19.6 mph N/A   Clear
1:35 PM 52.9 °F - 24.4 °F 33% 30.20 in 10.0 mi WNW 11.5 mph 19.6 mph N/A   Clear
1:55 PM 53.6 °F - 24.4 °F 32% 30.18 in 10.0 mi NW 10.4 mph 18.4 mph N/A   Clear
2:15 PM 54.5 °F - 24.6 °F 31% 30.18 in 10.0 mi NNW 10.4 mph 17.3 mph N/A   Clear
2:35 PM 54.9 °F - 25.0 °F 32% 30.18 in 10.0 mi WNW 10.4 mph 16.1 mph N/A   Clear
2:55 PM 55.6 °F - 24.8 °F 30% 30.18 in 10.0 mi WNW 12.7 mph 20.7 mph N/A   Clear
3:15 PM 55.9 °F - 24.6 °F 30% 30.19 in 10.0 mi NW 13.8 mph 18.4 mph N/A   Clear
3:35 PM 56.1 °F - 24.4 °F 29% 30.19 in 10.0 mi WNW 9.2 mph - N/A   Clear
3:55 PM 56.3 °F - 24.3 °F 29% 30.18 in 10.0 mi NW 12.7 mph 19.6 mph N/A   Clear
4:15 PM 55.9 °F - 24.1 °F 29% 30.18 in 10.0 mi NNW 10.4 mph 19.6 mph N/A   Clear
4:35 PM 56.1 °F - 24.3 °F 29% 30.18 in 10.0 mi NNW 11.5 mph 18.4 mph N/A   Clear
4:55 PM 55.8 °F - 23.7 °F 29% 30.19 in 10.0 mi NW 10.4 mph - N/A   Clear
5:15 PM 55.4 °F - 23.9 °F 30% 30.19 in 10.0 mi NNW 9.2 mph - N/A   Clear
5:35 PM 54.9 °F - 23.9 °F 30% 30.19 in 10.0 mi NW 9.2 mph - N/A   Clear
5:55 PM 54.0 °F - 23.9 °F 31% 30.19 in 10.0 mi NW 9.2 mph - N/A   Clear
6:15 PM 53.1 °F - 23.9 °F 32% 30.19 in 10.0 mi NNW 8.1 mph - N/A   Clear
6:35 PM 52.0 °F - 24.1 °F 34% 30.20 in 10.0 mi NW 5.8 mph - N/A   Clear
6:55 PM 51.1 °F - 24.1 °F 35% 30.20 in 10.0 mi NW 6.9 mph - N/A   Clear
7:15 PM 50.7 °F - 23.9 °F 35% 30.20 in 10.0 mi NW 6.9 mph - N/A   Clear
7:35 PM 50.2 °F - 23.9 °F 36% 30.21 in 10.0 mi NNW 3.5 mph - N/A   Clear
7:55 PM 49.1 °F - 24.3 °F 38% 30.21 in 10.0 mi NW 3.5 mph - N/A   Clear
8:15 PM 47.3 °F - 25.3 °F 42% 30.22 in 10.0 mi WNW 3.5 mph - N/A   Clear
8:35 PM 47.3 °F - 25.7 °F 43% 30.22 in 10.0 mi NW 4.6 mph - N/A   Clear
8:55 PM 45.9 °F 43.6 °F 26.1 °F 46% 30.23 in 10.0 mi NW 4.6 mph - N/A   Clear
9:15 PM 45.9 °F 44.6 °F 25.7 °F 45% 30.23 in 10.0 mi NNW 3.5 mph - N/A   Clear
9:35 PM 45.5 °F 44.2 °F 25.7 °F 46% 30.25 in 10.0 mi NNW 3.5 mph - N/A   Clear
9:55 PM 45.1 °F 43.7 °F 25.7 °F 47% 30.26 in 10.0 mi NW 3.5 mph - N/A   Clear
10:15 PM 43.9 °F 42.3 °F 26.1 °F 50% 30.28 in 10.0 mi NW 3.5 mph - N/A   Clear
10:35 PM 44.1 °F 41.5 °F 26.1 °F 49% 30.29 in 10.0 mi NW 4.6 mph - N/A   Clear
10:55 PM 43.9 °F 42.3 °F 26.6 °F 51% 30.30 in 10.0 mi NNW 3.5 mph - N/A   Clear
11:15 PM 43.2 °F - 26.1 °F 51% 30.30 in 10.0 mi Calm Calm - N/A   Clear
11:35 PM 42.3 °F - 26.1 °F 53% 30.30 in 10.0 mi Calm Calm - N/A   Clear
11:55 PM 41.5 °F 39.6 °F 26.6 °F 55% 30.30 in 10.0 mi North 3.5 mph - N/A   Clear